Location: Unspecified
(0.0000°N, 0.0000°E)
Time: 06:28:53
(UTC+00:00)

Vanguard 2 Rocket - Pass Details

Date: 04 October 2023
Orbit: 552 x 3312 km, 32.9° (Epoch: 06 December)

Event Time Altitude Azimuth Distance (km) Brightness Sun altitude
Rises 03:11:47 0° 195° (SSW) 2,922 - -39.2°
Reaches altitude 10° 03:15:29 10° 161° (SSE) 2,299 - -38.2°
Exits shadow 03:16:05 11° 154° (SSE) 2,283 9.2 -38.1°
Maximum altitude 03:17:29 12° 138° (SE) 2,351 9.4 -37.7°
Drops below altitude 10° 03:19:46 10° 117° (ESE) 2,728 10.0 -37.2°
Sets 03:25:20 0° 88° (E) 4,329 11.4 -35.8°
